Dublin, Ireland

1:55 PM IST on August 17, 2017 (GMT +0100)
Dublin International

Weather History for EIDW - November, 2014

Change the Weather History Date:

Sunday, November 30, 2014

  Actual Average Record
Temperature  
Mean Temperature 40 °F -  
Max Temperature 46 °F 47 °F 59 °F (2001)
Min Temperature 35 °F 38 °F 28 °F (2008)
Degree Days  
Heating Degree Days 24    
Moisture  
Dew Point 42 °F    
Average Humidity 95    
Maximum Humidity 100    
Minimum Humidity 82    
Precipitation  
Precipitation 0.00 in 0.10 in - ()
Sea Level Pressure  
Sea Level Pressure 30.03 in    
Wind  
Wind Speed 7 mph ()    
Max Wind Speed 12 mph    
Max Gust Speed -    
Visibility 7.5 miles    
Events Fog , Rain    
Averages and records for this station are not official NWS values.
T = Trace of Precipitation, MM = Missing Value Source: Averaged Metar Reports

Daily Weather History Graph

Daily Weather History Graph

Search for Another Location

Airport or City:

Trip Planner

Search our weather history database for the weather conditions in past years. The results will help you decide how hot, cold, wet, or windy it might be!

Date:

Astronomy

Nov. 30, 2014 Rise Set
Actual Time 8:15 AM GMT 4:11 PM GMT
Civil Twilight 7:34 AM GMT 4:52 PM GMT
Nautical Twilight 6:50 AM GMT 5:36 PM GMT
Astronomical Twilight 6:08 AM GMT 6:18 PM GMT
Moon 1:24 PM GMT (11/30) 12:34 AM GMT (11/30)
Length of Visible Light 9h 17m
Length of Day
7h 55m
Waxing Gibbous, 62% of the Moon is Illuminated
Nov 30
Waxing Gibbous
Dec 6
Full
Dec 14
Last Quarter
Dec 22
New
Dec 28
First Quarter

Hourly Weather History & Observations

Time (GMT) Temp. Windchill Dew Point Humidity Pressure Visibility Wind Dir Wind Speed Gust Speed Precip Events Conditions
12:00 AM 49 °F - 45 °F 83% 29.92 in 11 mi SW 8.9 mph - -   Mostly Cloudy
12:00 AM 50.0 °F - 44.6 °F 82% 29.89 in 6.2 mi SW 9.2 mph - N/A   Mostly Cloudy
12:30 AM 50.0 °F - 46.4 °F 87% 29.92 in 6.2 mi WSW 11.5 mph - N/A   Light Drizzle
1:00 AM 49 °F - 46 °F 86% 29.94 in 4 mi West 11.2 mph - - Rain Light Drizzle
1:00 AM 48.2 °F - 46.4 °F 93% 29.92 in 4.3 mi West 11.5 mph - N/A   Light Drizzle
1:30 AM 48.2 °F - 46.4 °F 93% 29.92 in 4.3 mi WSW 11.5 mph - N/A   Mostly Cloudy
2:00 AM 46 °F - 44 °F 92% 29.95 in 4 mi West 11.2 mph - - Rain Light Drizzle
2:00 AM 46.4 °F 41.5 °F 44.6 °F 93% 29.92 in 4.3 mi West 10.4 mph - N/A   Scattered Clouds
2:30 AM 46.4 °F 41.9 °F 44.6 °F 93% 29.95 in 3.7 mi West 9.2 mph - N/A   Scattered Clouds
3:00 AM 45 °F - 44 °F 94% 29.97 in 4 mi West 8.9 mph - -   Mist
3:00 AM 44.6 °F 39.7 °F 44.6 °F 100% 29.95 in 3.7 mi West 9.2 mph - N/A   Partly Cloudy
3:30 AM 44.6 °F 40.2 °F 42.8 °F 93% 29.95 in 3.7 mi West 8.1 mph - N/A   Partly Cloudy
4:00 AM 44 °F - 43 °F 96% 29.98 in 4 mi West 8.9 mph - -   Mist
4:00 AM 42.8 °F 38.0 °F 42.8 °F 100% 29.95 in 3.7 mi West 8.1 mph - N/A   Partly Cloudy
4:30 AM 42.8 °F 37.5 °F 42.8 °F 100% 29.98 in 3.1 mi West 9.2 mph - N/A   Partly Cloudy
5:00 AM 43 °F - 42 °F 97% 29.99 in 3 mi West 11.2 mph - -   Mist
5:00 AM 42.8 °F 37.0 °F 42.8 °F 100% 29.98 in 3.1 mi West 10.4 mph - N/A   Partly Cloudy
5:30 AM 42.8 °F 38.0 °F 42.8 °F 100% 29.98 in 3.1 mi West 8.1 mph - N/A   Partly Cloudy
6:00 AM 41 °F - 41 °F 99% 30.02 in 1 mi West 8.9 mph - - Fog Patches of Fog
6:00 AM 41.0 °F 35.2 °F 41.0 °F 100% 30.01 in 0.9 mi West 9.2 mph - N/A Fog Patches of Fog
6:30 AM 41.0 °F 35.2 °F 41.0 °F 100% 30.01 in 0.9 mi West 9.2 mph - N/A Fog Patches of Fog
7:00 AM 39 °F - 39 °F 100% 30.03 in 5 mi West 6.7 mph - -   Mist
7:00 AM 39.2 °F 33.6 °F 39.2 °F 100% 30.01 in 5.0 mi West 8.1 mph - N/A   Partly Cloudy
7:30 AM 41.0 °F 37.1 °F 41.0 °F 100% 30.01 in 6.2 mi WNW 5.8 mph - N/A   Mostly Cloudy
8:00 AM 40 °F - 40 °F 100% 30.04 in 12 mi WNW 11.2 mph - -   Partly Cloudy
8:00 AM 41.0 °F 35.2 °F 41.0 °F 100% 30.01 in 6.2 mi WNW 9.2 mph - N/A   Scattered Clouds
8:30 AM 41.0 °F 35.2 °F 41.0 °F 100% 30.04 in 6.2 mi WNW 9.2 mph - N/A   Partly Cloudy
9:00 AM 43 °F - 43 °F 98% 30.06 in 11 mi SW 4.5 mph - -   Partly Cloudy
9:00 AM 42.8 °F 40.1 °F 42.8 °F 100% 30.04 in 6.2 mi SW 4.6 mph - N/A   Scattered Clouds
9:30 AM 42.8 °F 38.6 °F 42.8 °F 100% 30.04 in 6.2 mi WSW 6.9 mph - N/A   Scattered Clouds
10:00 AM 44 °F - 43 °F 97% 30.07 in 16 mi West 11.2 mph - -   Mostly Cloudy
10:00 AM 42.8 °F 37.0 °F 42.8 °F 100% 30.04 in 6.2 mi West 10.4 mph - N/A   Scattered Clouds
10:30 AM 44.6 °F 40.2 °F 44.6 °F 100% 30.06 in 6.2 mi WSW 8.1 mph - N/A   Mostly Cloudy
11:00 AM 46 °F - 44 °F 89% 30.09 in 16 mi WSW 6.7 mph - -   Mostly Cloudy
11:00 AM 44.6 °F 40.7 °F 44.6 °F 100% 30.06 in 6.2 mi WSW 6.9 mph - N/A   Mostly Cloudy
11:30 AM 46.4 °F 42.9 °F 44.6 °F 93% 30.06 in 6.2 mi WSW 6.9 mph - N/A   Mostly Cloudy
12:00 PM 46 °F - 44 °F 89% 30.09 in 16 mi West 6.7 mph - -   Mostly Cloudy
12:00 PM 46.4 °F 43.5 °F 44.6 °F 93% 30.06 in 6.2 mi West 5.8 mph - N/A   Mostly Cloudy
12:30 PM 46.4 °F 42.4 °F 44.6 °F 93% 30.06 in 6.2 mi West 8.1 mph - N/A   Mostly Cloudy
1:00 PM 46 °F - 44 °F 92% 30.08 in 16 mi West 8.9 mph - -   Mostly Cloudy
1:00 PM 46.4 °F 42.9 °F 44.6 °F 93% 30.06 in 6.2 mi West 6.9 mph - N/A   Mostly Cloudy
1:30 PM 46.4 °F 42.9 °F 44.6 °F 93% 30.06 in 6.2 mi West 6.9 mph - N/A   Mostly Cloudy
2:00 PM 46 °F - 45 °F 94% 30.08 in 25 mi West 6.7 mph - -   Mostly Cloudy
2:00 PM 46.4 °F 42.9 °F 44.6 °F 93% 30.06 in 6.2 mi West 6.9 mph - N/A   Mostly Cloudy
2:30 PM 46.4 °F 42.4 °F 44.6 °F 93% 30.06 in 6.2 mi West 8.1 mph - N/A   Mostly Cloudy
3:00 PM 46 °F - 45 °F 93% 30.09 in 19 mi West 8.9 mph - -   Mostly Cloudy
3:00 PM 46.4 °F 42.4 °F 44.6 °F 93% 30.06 in 6.2 mi West 8.1 mph - N/A   Mostly Cloudy
3:30 PM 46.4 °F 43.5 °F 44.6 °F 93% 30.06 in 6.2 mi West 5.8 mph - N/A   Mostly Cloudy
4:00 PM 46 °F - 44 °F 92% 30.09 in 19 mi West 6.7 mph - -   Mostly Cloudy
4:00 PM 46.4 °F 44.3 °F 44.6 °F 93% 30.06 in 6.2 mi West 4.6 mph - N/A   Mostly Cloudy
4:30 PM 46.4 °F 44.3 °F 44.6 °F 93% 30.06 in 6.2 mi West 4.6 mph - N/A   Mostly Cloudy
5:00 PM 45 °F - 43 °F 90% 30.09 in 19 mi NW 2.2 mph - -   Mostly Cloudy
5:00 PM 44.6 °F - 42.8 °F 93% 30.06 in 6.2 mi Variable 2.3 mph - N/A   Mostly Cloudy
5:30 PM 44.6 °F 42.2 °F 42.8 °F 93% 30.06 in 6.2 mi WNW 4.6 mph - N/A   Mostly Cloudy
6:00 PM 45 °F - 42 °F 87% 30.09 in 19 mi North 4.5 mph - -   Mostly Cloudy
6:00 PM 44.6 °F 42.2 °F 42.8 °F 93% 30.06 in 6.2 mi North 4.6 mph - N/A   Mostly Cloudy
6:30 PM 44.6 °F 43.1 °F 42.8 °F 93% 30.06 in 6.2 mi Variable 3.5 mph - N/A   Mostly Cloudy
7:00 PM 45 °F - 42 °F 84% 30.09 in 19 mi ENE 2.2 mph - -   Mostly Cloudy
7:00 PM 44.6 °F - 42.8 °F 93% 30.06 in 6.2 mi Variable 1.2 mph - N/A   Mostly Cloudy
7:30 PM 42.8 °F - 41.0 °F 93% 30.06 in 6.2 mi Calm Calm - N/A   Partly Cloudy
8:00 PM 38 °F - 37 °F 96% 30.08 in 19 mi ESE 2.2 mph - -   Scattered Clouds
8:00 PM 39.2 °F - 37.4 °F 93% 30.06 in 6.2 mi Variable 2.3 mph - N/A   Mostly Cloudy
8:30 PM 37.4 °F 34.9 °F 37.4 °F 100% 30.04 in 6.2 mi Variable 3.5 mph - N/A   Mostly Cloudy
9:00 PM 35 °F - 35 °F 98% 30.08 in 19 mi WNW 2.2 mph - -   Scattered Clouds
9:00 PM 35.6 °F - 35.6 °F 100% 30.06 in 6.2 mi Calm Calm - N/A   Scattered Clouds
9:30 PM 37.4 °F 32.8 °F 35.6 °F 93% 30.06 in 6.2 mi West 5.8 mph - N/A   Scattered Clouds
10:00 PM 38 °F - 38 °F 100% 30.07 in 10 mi WSW 4.5 mph - -   Scattered Clouds
10:00 PM 37.4 °F 33.8 °F 37.4 °F 100% 30.04 in 6.2 mi WSW 4.6 mph - N/A   Scattered Clouds
10:30 PM 39.2 °F 35.0 °F 39.2 °F 100% 30.06 in 6.2 mi SW 5.8 mph - N/A   Partly Cloudy
11:00 PM 40 °F - 40 °F 99% 30.06 in 5 mi SW 8.9 mph - -   Mist
11:00 PM 39.2 °F 33.6 °F 39.2 °F 100% 30.04 in 5.0 mi SW 8.1 mph - N/A   Partly Cloudy
11:30 PM 41.0 °F 36.4 °F 41.0 °F 100% 30.04 in 5.0 mi SW 6.9 mph - N/A   Scattered Clouds